Location: North Runcton
(52.7000°N, 0.4333°E)
Time: 04:47:34
(UTC+00:00)

ATLAS 3B R/B - Pass Details

Date: 19 May 2025
Orbit: 935 x 1258 km, 63.8° (Epoch: 13 June)

Event Time Altitude Azimuth Distance (km) Brightness Sun altitude
Exits shadow 21:30:07 12° 132° (SE) 2,913 4.4 -10.8°
Maximum altitude 21:33:26 17° 103° (ESE) 2,673 4.4 -11.1°
Drops below altitude 10° 21:37:53 10° 68° (ENE) 3,201 5.1 -11.5°
Sets 21:41:53 0° 50° (NE) 4,203 5.9 -11.8°
